Greenville, SC

4:50 AM EST on February 25, 2017 (GMT -0500)
Donaldson Center

Weather History for KGYH - November, 2012

Change the Weather History Date:

Sunday, November 4, 2012

  Actual Average (KGMU) Record (KGMU)
Temperature  
Mean Temperature 60 °F -  
Max Temperature 69 °F 64 °F 75 °F (2003)
Min Temperature 50 °F 45 °F 30 °F (2006)
Degree Days  
Heating Degree Days 6    
Growing Degree Days 10 (Base 50)    
Moisture  
Dew Point 47 °F    
Average Humidity 72    
Maximum Humidity 94    
Minimum Humidity 45    
Precipitation  
Precipitation 0.01 in - - ()
Sea Level Pressure  
Sea Level Pressure 29.97 in    
Wind  
Wind Speed 4 mph (NE)    
Max Wind Speed 10 mph    
Max Gust Speed -    
Visibility 10 miles    
Events      
Averages and records for this station are not official NWS values.
T = Trace of Precipitation, MM = Missing Value Source: NWS Daily Summary

Daily Weather History Graph

Daily Weather History Graph

Search for Another Location

Airport or City:

Trip Planner

Search our weather history database for the weather conditions in past years. The results will help you decide how hot, cold, wet, or windy it might be!

Date:

Astronomy

Nov. 04, 2012 Rise Set
Actual Time 6:53 AM EST 5:32 PM EST
Civil Twilight 6:27 AM EST 5:58 PM EST
Nautical Twilight 5:57 AM EST 6:28 PM EST
Astronomical Twilight 5:27 AM EST 6:58 PM EST
Moon 10:11 PM EST (11/4) 11:33 AM EST (11/4)
Length of Visible Light 11h 31m
Length of Day
10h 38m
Waning Gibbous, 72% of the Moon is Illuminated
Nov 4
Waning Gibbous
Nov 6
Last Quarter
Nov 13
New
Nov 20
First Quarter
Nov 28
Full

Hourly Weather History & Observations

Time (EST) Temp. Dew Point Humidity Pressure Visibility Wind Dir Wind Speed Gust Speed Precip Events Conditions
12:15 AM 60.8 °F 50.0 °F 68% 29.99 in 10.0 mi Calm Calm - N/A   Clear
12:35 AM 59.0 °F 50.0 °F 72% 29.99 in 10.0 mi WNW 4.6 mph - N/A   Clear
12:55 AM 51.8 °F 50.0 °F 94% 29.99 in 10.0 mi Calm Calm - N/A   Clear
1:15 AM 53.6 °F 50.0 °F 88% 29.98 in 10.0 mi WSW 3.5 mph - N/A   Clear
1:35 AM 53.6 °F 50.0 °F 88% 29.98 in 10.0 mi WSW 3.5 mph - N/A   Clear
1:55 AM 53.6 °F 50.0 °F 88% 29.98 in 10.0 mi SW 4.6 mph - N/A   Clear
1:15 AM 57.2 °F 51.8 °F 82% 29.97 in 10.0 mi SW 5.8 mph - N/A   Clear
1:55 AM 57.2 °F 51.8 °F 82% 29.96 in 10.0 mi SW 5.8 mph - N/A   Clear
2:15 AM 59.0 °F 51.8 °F 77% 29.95 in 10.0 mi WSW 4.6 mph - N/A   Clear
2:35 AM 59.0 °F 51.8 °F 77% 29.95 in 10.0 mi West 3.5 mph - N/A   Clear
2:55 AM 55.4 °F 51.8 °F 88% 29.95 in 10.0 mi West 3.5 mph - N/A   Clear
3:15 AM 59.0 °F 51.8 °F 77% 29.94 in 10.0 mi Calm Calm - N/A   Clear
3:35 AM 59.0 °F 51.8 °F 77% 29.95 in 10.0 mi NE 6.9 mph - N/A   Clear
3:55 AM 59.0 °F 51.8 °F 77% 29.95 in 10.0 mi Calm Calm - N/A   Clear
4:15 AM 55.4 °F 50.0 °F 82% 29.96 in 10.0 mi NNE 4.6 mph - N/A   Clear
4:35 AM 55.4 °F 44.6 °F 67% 29.96 in 10.0 mi NE 10.4 mph - N/A   Clear
4:55 AM 53.6 °F 42.8 °F 67% 29.97 in 10.0 mi NE 8.1 mph - N/A   Clear
5:15 AM 51.8 °F 41.0 °F 67% 29.98 in 10.0 mi NE 4.6 mph - N/A   Clear
5:35 AM 50.0 °F 41.0 °F 71% 29.98 in 10.0 mi East 5.8 mph - N/A   Clear
6:47 AM 50.0 °F 39.2 °F 66% 30.00 in 10.0 mi ENE 5.8 mph - N/A   Clear
7:47 AM 51.8 °F 37.4 °F 58% 30.01 in 10.0 mi East 8.1 mph - N/A   Clear
8:47 AM 55.4 °F 37.4 °F 51% 30.00 in 10.0 mi East 8.1 mph - N/A   Clear
9:47 AM 57.2 °F 37.4 °F 48% 30.00 in 10.0 mi NE 4.6 mph - N/A   Clear
10:48 AM 60.8 °F 39.2 °F 45% 29.99 in 10.0 mi Calm Calm - N/A   Clear
11:48 AM 62.6 °F 42.8 °F 48% 29.97 in 10.0 mi Calm Calm - N/A   Clear
12:47 PM 66.2 °F 46.4 °F 49% 29.95 in 10.0 mi Calm Calm - N/A   Clear
1:52 PM 69.8 °F 48.2 °F 46% 29.93 in 10.0 mi SSE 3.5 mph - N/A   Clear
2:47 PM 69.8 °F 48.2 °F 46% 29.92 in 10.0 mi Calm Calm - N/A   Scattered Clouds
3:49 PM 66.2 °F 51.8 °F 60% 29.93 in 10.0 mi NNW 4.6 mph - N/A   Scattered Clouds
4:47 PM 62.6 °F 55.4 °F 77% 29.91 in 10.0 mi ESE 5.8 mph - N/A   Scattered Clouds
5:47 PM 57.2 °F 53.6 °F 88% 29.94 in 10.0 mi ENE 4.6 mph - N/A   Scattered Clouds
6:47 PM 55.4 °F 53.6 °F 94% 29.96 in 10.0 mi ENE 6.9 mph - N/A   Clear
7:47 PM 55.4 °F 50.0 °F 82% 29.96 in 10.0 mi NE 5.8 mph - N/A   Clear
8:15 PM 53.6 °F 50.0 °F 88% 29.96 in 10.0 mi NE 4.6 mph - N/A   Scattered Clouds
8:35 PM 53.6 °F 50.0 °F 88% 29.96 in 10.0 mi NE 5.8 mph - N/A   Mostly Cloudy
8:51 PM 55.4 °F 48.2 °F 77% 29.96 in 10.0 mi NE 5.8 mph - N/A   Mostly Cloudy
8:55 PM 55.4 °F 48.2 °F 77% 29.97 in 10.0 mi NE 6.9 mph - N/A   Mostly Cloudy
9:15 PM 55.4 °F 46.4 °F 72% 29.97 in 10.0 mi NE 6.9 mph - 0.01 in   Mostly Cloudy
9:35 PM 55.4 °F 44.6 °F 67% 29.98 in 10.0 mi NNE 5.8 mph - 0.01 in   Overcast
9:55 PM 55.4 °F 44.6 °F 67% 29.98 in 10.0 mi NE 5.8 mph - 0.01 in   Overcast
10:15 PM 55.4 °F 44.6 °F 67% 29.98 in 10.0 mi NNE 4.6 mph - N/A   Overcast
10:35 PM 55.4 °F 44.6 °F 67% 29.98 in 10.0 mi NE 5.8 mph - N/A   Mostly Cloudy
10:55 PM 53.6 °F 44.6 °F 72% 29.98 in 10.0 mi NE 5.8 mph - N/A   Clear